Escanaba, MI

7:52 PM EST on January 17, 2018 (GMT -0500)
Delta County

Weather History for KESC - July, 2013

Change the Weather History Date:

Friday, July 19, 2013

  Actual Average Record
Temperature  
Mean Temperature 74 °F -  
Max Temperature 87 °F 75 °F 89 °F (1975)
Min Temperature 62 °F 60 °F 35 °F (2000)
Cooling Degree Days 10    
Growing Degree Days 24 (Base 50)    
Moisture  
Dew Point 66 °F    
Average Humidity 68    
Maximum Humidity 94    
Minimum Humidity 48    
Precipitation  
Precipitation 0.04 in - - ()
Sea Level Pressure  
Sea Level Pressure 29.68 in    
Wind  
Wind Speed 10 mph (West)    
Max Wind Speed 18 mph    
Max Gust Speed 28 mph    
Visibility 10 miles    
Events Thunderstorm    
Averages and records for this station are not official NWS values.
T = Trace of Precipitation, MM = Missing Value Source: NWS Daily Summary

Daily Weather History Graph

Daily Weather History Graph

Search for Another Location

Airport or City:

Trip Planner

Search our weather history database for the weather conditions in past years. The results will help you decide how hot, cold, wet, or windy it might be!

Date:

Astronomy

Jul. 19, 2013 Rise Set
Actual Time 6:17 AM EDT 9:31 PM EDT
Civil Twilight 5:41 AM EDT 10:07 PM EDT
Nautical Twilight 4:54 AM EDT 10:53 PM EDT
Astronomical Twilight 3:56 AM EDT 11:51 PM EDT
Moon 6:32 PM EDT (7/19) 2:59 AM EDT (7/19)
Length of Visible Light 16h 25m
Length of Day
15h 13m
Waxing Gibbous, 86% of the Moon is Illuminated
Jul 19
Waxing Gibbous
Jul 22
Full
Jul 29
Last Quarter
Aug 6
New
Aug 14
First Quarter

Hourly Weather History & Observations

Time (EDT) Temp. Heat Index Dew Point Humidity Pressure Visibility Wind Dir Wind Speed Gust Speed Precip Events Conditions
12:15 AM 82.4 °F 86.3 °F 69.8 °F 66% 29.74 in 10.0 mi SW 11.5 mph - N/A   Clear
12:35 AM 80.6 °F 83.9 °F 69.8 °F 70% 29.73 in 10.0 mi SW 11.5 mph - N/A   Clear
12:55 AM 80.6 °F 83.9 °F 69.8 °F 70% 29.72 in 10.0 mi SW 11.5 mph 19.6 mph N/A   Clear
1:15 AM 82.4 °F 86.3 °F 69.8 °F 66% 29.72 in 10.0 mi SW 10.4 mph 19.6 mph N/A   Clear
1:35 AM 82.4 °F 86.3 °F 69.8 °F 66% 29.72 in 10.0 mi WSW 12.7 mph 17.3 mph N/A   Clear
1:55 AM 82.4 °F 86.3 °F 69.8 °F 66% 29.72 in 10.0 mi SW 8.1 mph - N/A   Clear
2:15 AM 80.6 °F 83.9 °F 69.8 °F 70% 29.71 in 10.0 mi WSW 10.4 mph 16.1 mph N/A   Clear
2:35 AM 80.6 °F 83.9 °F 69.8 °F 70% 29.70 in 10.0 mi WSW 9.2 mph - N/A   Clear
2:55 AM 80.6 °F 83.9 °F 69.8 °F 70% 29.69 in 10.0 mi WSW 9.2 mph 17.3 mph N/A   Clear
3:15 AM 80.6 °F 83.9 °F 69.8 °F 70% 29.68 in 10.0 mi WSW 9.2 mph - N/A   Clear
3:35 AM 80.6 °F 83.9 °F 69.8 °F 70% 29.67 in 10.0 mi SW 8.1 mph - N/A   Clear
3:55 AM 80.6 °F 83.9 °F 69.8 °F 70% 29.65 in 10.0 mi SW 9.2 mph - N/A   Clear
4:15 AM 78.8 °F - 69.8 °F 74% 29.64 in 10.0 mi SW 9.2 mph 16.1 mph N/A   Clear
4:35 AM 78.8 °F - 69.8 °F 74% 29.64 in 10.0 mi SW 10.4 mph - N/A   Clear
4:55 AM 78.8 °F - 69.8 °F 74% 29.64 in 10.0 mi SW 8.1 mph - N/A   Clear
5:15 AM 78.8 °F - 69.8 °F 74% 29.64 in 10.0 mi SSW 5.8 mph - N/A   Clear
5:35 AM 75.2 °F - 69.8 °F 83% 29.63 in 10.0 mi SSW 9.2 mph - N/A   Clear
5:55 AM 75.2 °F - 68.0 °F 78% 29.62 in 10.0 mi South 8.1 mph - N/A   Clear
6:15 AM 75.2 °F - 68.0 °F 78% 29.62 in 10.0 mi SSW 5.8 mph - N/A   Clear
6:35 AM 78.8 °F - 69.8 °F 74% 29.63 in 10.0 mi WSW 12.7 mph 17.3 mph N/A   Partly Cloudy
6:55 AM 78.8 °F - 69.8 °F 74% 29.65 in 10.0 mi NNE 12.7 mph 18.4 mph N/A   Mostly Cloudy
7:15 AM 75.2 °F - 66.2 °F 73% 29.65 in 10.0 mi North 5.8 mph 17.3 mph N/A   Overcast
7:35 AM 73.4 °F - 66.2 °F 78% 29.65 in 10.0 mi NE 9.2 mph - N/A   Overcast
7:55 AM 71.6 °F - 66.2 °F 83% 29.66 in 10.0 mi Calm Calm - N/A Thunderstorm Overcast
8:15 AM 69.8 °F - 66.2 °F 88% 29.65 in 5.0 mi Calm Calm - N/A Thunderstorm Thunderstorm
8:35 AM 71.6 °F - 66.2 °F 83% 29.63 in 10.0 mi South 3.5 mph - N/A   Mostly Cloudy
8:55 AM 71.6 °F - 69.8 °F 94% 29.64 in 10.0 mi South 3.5 mph - N/A   Scattered Clouds
9:15 AM 73.4 °F - 69.8 °F 88% 29.65 in 10.0 mi South 5.8 mph - N/A   Clear
9:35 AM 75.2 °F - 69.8 °F 83% 29.64 in 10.0 mi SW 9.2 mph - N/A   Clear
9:55 AM 77.0 °F - 71.6 °F 83% 29.64 in 10.0 mi WSW 12.7 mph 17.3 mph N/A   Clear
10:15 AM 77.0 °F - 71.6 °F 83% 29.63 in 10.0 mi WSW 11.5 mph - N/A   Clear
10:35 AM 78.8 °F - 73.4 °F 83% 29.63 in 10.0 mi WSW 11.5 mph 17.3 mph N/A   Clear
10:55 AM 78.8 °F - 73.4 °F 83% 29.62 in 10.0 mi WSW 12.7 mph 16.1 mph N/A   Clear
11:15 AM 80.6 °F 85.4 °F 73.4 °F 79% 29.61 in 10.0 mi WSW 13.8 mph 18.4 mph N/A   Clear
11:35 AM 82.4 °F 88.2 °F 73.4 °F 74% 29.60 in 10.0 mi West 17.3 mph 21.9 mph N/A   Partly Cloudy
11:55 AM 84.2 °F 89.6 °F 71.6 °F 66% 29.61 in 10.0 mi West 12.7 mph - N/A   Clear
12:15 PM 84.2 °F 89.6 °F 71.6 °F 66% 29.61 in 10.0 mi WSW 13.8 mph 17.3 mph N/A   Clear
12:35 PM 86.0 °F 90.4 °F 69.8 °F 58% 29.61 in 10.0 mi WSW 13.8 mph 17.3 mph N/A   Partly Cloudy
12:55 PM 87.8 °F 92.6 °F 69.8 °F 55% 29.59 in 10.0 mi West 13.8 mph 24.2 mph N/A Thunderstorm Thunderstorm
1:15 PM 73.4 °F - 64.4 °F 73% 29.65 in 10.0 mi NW 13.8 mph 25.3 mph 0.02 in Thunderstorm Mostly Cloudy
1:35 PM 71.6 °F - 66.2 °F 83% 29.66 in 10.0 mi West 6.9 mph - 0.04 in   Partly Cloudy
1:55 PM 78.8 °F - 69.8 °F 74% 29.65 in 10.0 mi NW 11.5 mph 17.3 mph 0.04 in   Scattered Clouds
2:15 PM 80.6 °F 83.2 °F 68.0 °F 65% 29.66 in 10.0 mi WNW 11.5 mph 23.0 mph N/A   Partly Cloudy
2:35 PM 82.4 °F 86.3 °F 69.8 °F 66% 29.66 in 10.0 mi WNW 12.7 mph 17.3 mph N/A   Mostly Cloudy
2:55 PM 80.6 °F 82.3 °F 64.4 °F 58% 29.65 in 10.0 mi WNW 17.3 mph 24.2 mph N/A   Mostly Cloudy
3:15 PM 82.4 °F 84.6 °F 66.2 °F 58% 29.65 in 10.0 mi NW 18.4 mph 24.2 mph N/A   Partly Cloudy
3:35 PM 82.4 °F 83.9 °F 64.4 °F 54% 29.66 in 10.0 mi NW 16.1 mph 27.6 mph N/A   Clear
3:55 PM 84.2 °F 85.6 °F 64.4 °F 51% 29.66 in 10.0 mi NW 17.3 mph 26.5 mph N/A   Clear
4:15 PM 82.4 °F 83.4 °F 62.6 °F 51% 29.67 in 10.0 mi NW 15.0 mph 23.0 mph N/A   Clear
4:35 PM 82.4 °F 83.4 °F 62.6 °F 51% 29.67 in 10.0 mi NW 13.8 mph 19.6 mph N/A   Partly Cloudy
4:55 PM 82.4 °F 82.9 °F 60.8 °F 48% 29.69 in 10.0 mi NW 18.4 mph 25.3 mph N/A   Partly Cloudy
5:15 PM 82.4 °F 82.9 °F 60.8 °F 48% 29.69 in 10.0 mi NNW 11.5 mph 20.7 mph N/A   Scattered Clouds
5:35 PM 82.4 °F 82.9 °F 60.8 °F 48% 29.69 in 10.0 mi NW 12.7 mph 19.6 mph N/A   Scattered Clouds
5:55 PM 82.4 °F 82.9 °F 60.8 °F 48% 29.69 in 10.0 mi WNW 15.0 mph 20.7 mph N/A   Partly Cloudy
6:15 PM 82.4 °F 82.9 °F 60.8 °F 48% 29.69 in 10.0 mi NNW 10.4 mph 20.7 mph N/A   Partly Cloudy
6:35 PM 80.6 °F 81.1 °F 59.0 °F 48% 29.70 in 10.0 mi NW 10.4 mph 21.9 mph N/A   Clear
6:55 PM 80.6 °F 81.1 °F 59.0 °F 48% 29.70 in 10.0 mi NNW 11.5 mph 19.6 mph N/A   Clear
7:15 PM 80.6 °F 81.5 °F 60.8 °F 51% 29.70 in 10.0 mi NW 10.4 mph - N/A   Clear
7:35 PM 80.6 °F 81.1 °F 59.0 °F 48% 29.71 in 10.0 mi NNW 10.4 mph 17.3 mph N/A   Clear
7:55 PM 78.8 °F - 59.0 °F 51% 29.72 in 10.0 mi NW 8.1 mph - N/A   Clear
8:15 PM 78.8 °F - 59.0 °F 51% 29.73 in 10.0 mi NW 8.1 mph - N/A   Clear
8:35 PM 77.0 °F - 57.2 °F 50% 29.74 in 10.0 mi NW 8.1 mph - N/A   Clear
8:55 PM 75.2 °F - 55.4 °F 50% 29.74 in 10.0 mi NW 6.9 mph - N/A   Clear
9:15 PM 73.4 °F - 55.4 °F 53% 29.75 in 10.0 mi NW 4.6 mph - N/A   Clear
9:35 PM 71.6 °F - 55.4 °F 57% 29.75 in 10.0 mi NNW 3.5 mph - N/A   Clear
9:55 PM 69.8 °F - 57.2 °F 64% 29.75 in 10.0 mi Calm Calm - N/A   Clear
10:15 PM 66.2 °F - 57.2 °F 73% 29.76 in 10.0 mi Calm Calm - N/A   Clear
10:35 PM 64.4 °F - 59.0 °F 83% 29.77 in 10.0 mi Calm Calm - N/A   Clear
10:55 PM 64.4 °F - 59.0 °F 83% 29.77 in 10.0 mi West 3.5 mph - N/A   Clear
11:15 PM 64.4 °F - 57.2 °F 77% 29.77 in 10.0 mi West 3.5 mph - N/A   Clear
11:35 PM 62.6 °F - 57.2 °F 82% 29.77 in 10.0 mi West 4.6 mph - N/A   Clear
11:55 PM 62.6 °F - 57.2 °F 82% 29.76 in 10.0 mi West 4.6 mph - N/A   Clear